Погода в Минске

Погода в Минске : погода сейчас, прогноз погоды и архив. Всё, что Вы хотите узнать о погоде в Минске!

Хотите узнать прогноз погоды Минск? Тогда Вам сюда: Погода Минск

Поиск расширенной информации на нашем сайте:

Другие новости

Новости СМИ2

Главная страница сайта

Новости сайта

03.07.2017

Напоминаем, что на нашем специализированном сайте Метеоцентр.Азия вы можете получить высокодетализированные автоматические прогнозы погоды по пунктам России, СНГ и мира в авиационном формате (включающие направление и скорость ветра, видимость, явления погоды, количество и форму облачности, нижнюю и верхнюю границу облачности).


Погода в Минске - сегодня

Время (UTC), дата Ветер
(°,м/с) 
Видим.   Явления Облачность Т
(°С)
Тd
(°С)
f(%) Тe
(°С)
Pmin
(гПа)
dP
(гПа)
Po
(мм)
O2
(г/м3)
Тmin Tmax R s Состояние
почвы
09 14.11.18 130 (ЮВ) 2700 м  слаб. дождь{ливн. осадки}  10/10 120 м 
[Sc]
+1.1 +0.7 97 +2  1018.7  -0.5  743  298           
12 14.11.18 тихо ()   2600 м  слаб. дождь  10/10 180 м 
[Sc]
+2 +1.9 99 +2  1019.3  0.7  743  297           
15 14.11.18 300 (СЗ) 23000 м  слаб. дождь  10/10 360 м 
[Sc]
+3.1 +2.5 96 +3  1021.5  2.2  745  296         
18 14.11.18 320 (СЗ) 10 км  слаб. дождь  10/10 210 м 
[Sc]
+3.7 +3.5 99 +5  1022.7  1.2  746  296    +3.9     
21 14.11.18 360 (С) 22000 м  слаб. дождь  10/10 240 м 
[Sc]
+2.8 +2.4 97 +4  1024.6  1.8  747  298           
00 15.11.18 320 (СЗ) 17000 м  слаб. дождь  10/10 210 м 
[Sc]
+0.7 +0 95 +1  1026.6  1.7  749  301           
03 15.11.18 330 (СЗ) 10 км  слаб. ливневой дождь со снегом  10/10 210 м кучево-дожд. 
[Cb calv]
+0.7 +0.2 96 +1  1027.8  1.2  749  301         
06 15.11.18 260 (З) 22000 м  {ливн. осадки, дождь}  10/10 240 м 
[Sc]
+0.4 -0.5 94 +1  1030.3  2.4  751  302  +0.3       
09 15.11.18 310 (СЗ) 13000 м    8/8 360 м 
[Sc]
+0 -1.5 90 +1  1032.6  2.2  753  304           
12 15.11.18 070 (В) 14000 м    8/8 870 м средняя 
[Sc|Ac trans]
-0.6 -2.5 87 1034.1  1.4  754  305           
15 15.11.18 060 (СВ) 11000 м    9/9 300 м 
[Sc]
-1 -2.3 91 1036.4  2.2  756  306           
18 15.11.18 060 (СВ) 5000 м  дымка  10/10 210 м 
[St]
-1.1 -1.9 94 -1  1037.7  1.2  757  306    +0.9       
21 15.11.18 тихо ()   3800 м  дымка  10/10 330 м 
[St]
-0.6 -1.1 96 -1  1039.2  1.5  758  306           
00 16.11.18 тихо ()   0700 м  туман  ?/?  
-0.4 -0.4 100 -0  1040.5  1.3  759  306           
03 16.11.18 тихо ()   1700 м  в посл. час туман  10/10 240 м 
[St]
-0.2 -0.4 99 -0  1041.5  759  306           
06 16.11.18 290 (З) 4800 м  дымка{туман}  10/10 240 м 
[St]
-0.2 -0.7 96 1043  1.5  761  307  -1.1         
09 16.11.18 060 (СВ) 7000 м  дымка  10/10 240 м 
[St]
+0.1 -0.5 96 +1  1044.5  1.5  762  307           
12 16.11.18 тихо ()   12000 м    8/8 600 м средняя 
[Sc|Ac trans]
+1.7 -1.7 78 +2  1044.6  0.2  762  305           
15 16.11.18 260 (З) 8000 м  дымка  3/3 800 м 
[Sc]
-1.8 -2.9 92 -1  1045.2  0.2  762  309           
18 16.11.18 310 (СЗ) 8000 м  дымка  8/6 870 м средняя 
[Sc|Ac trans]
-2.9 -3.8 93 -2  1045.7  0.4  762  311    +1.8       
21 16.11.18 тихо ()   7000 м  дымка  ясно 
-3.9 -4.7 94 -4  1046.2  0.4  763  312           
00 17.11.18 тихо ()   7000 м  дымка  ясно 
-5 -5.9 93 -5  1046.1  -0.3  762  314           
03 17.11.18 тихо ()   8000 м  дымка  ясно 
-5.9 -6.9 93 -6  1045.6  -0.5  762  315           
06 17.11.18 тихо ()   9000 м  дымка  ясно 
-6.4 -7.6 91 -6  1044.8  -0.9  761  315  -6.7         
09 17.11.18 тихо ()   13000 м    ясно 
+0.4 -5 67 1043.8  -0.2  761  307           
Время (UTC), дата Ветер
(°,м/с) 
Видим.   Явления Облачность Т
(°С)
Тd
(°С)
f(%) Тe
(°С)
Pmin
(гПа)
dP
(гПа)
Po
(мм)
O2
(г/м3)
Тmin Tmax R s Состояние
почвы

Для получения пояснительной информации подведите курсор к названию столбца.

ПОГОДА в Минске - архив

Всё, что Вы хотите узнать о погоде в Минске - удобно и подробно!

Выберите нужную дату (начиная с 1 января 2015* года) и нажмите кнопку "Найти".
Будут отображены архивные сводки погоды по пункту Минск, начиная с указанной даты.


Отображать данные в формате CSV (для использования в таблицах Excel)


Внимание! Наш архив погоды предназначен исключительно для личного некоммерческого использования в познавательных целях. Если Вам необходимы официальные справки о состоянии погоды (для производственных, юридических, коммерческих и т.п. целей), обращайтесь в органы Росгидромета.

*Примечание: данная дата относится к архиву по метеостанциям СССР (Россия, СНГ, Балтия).
Архив по метеостанциям Зарубежной Европы и Азии (кроме Китая) хранится 10 дней, по другим регионам земного шара (Китай, Африка, Америка, Австралия, Океания) - 1 день.

Минск - район местоположения метеостанции


Название, широта, долгота, высота метеостанции:
Минск (город) 53.9°ш. 27.6°д. 231 м над ур. моря [Беларусь]

Дополнительная информация

В oтличие oт бoльшинства пoгoдных сайтoв мы публикуем пoдрoбную метеoинфoрмацию в детальнoм прoфессиoнальнoм фoрмате.

Характеристики температуры и влажнoсти вoздуха измеряются на высoте 2 м в тени вдали oт зданий и деревьев.
Скoрoсть ветра измеряется на высoте 10 м (на урoвне рoста челoвека скoрoсть ветра ниже в 1.5-2 раза). Если метеoстанция нахoдится в гoрoде или в лесу, тo скoрoсть ветра занижена на 2-4 м/с пo сравнению с oткрытым местoм. Скoрoсть ветра над акватoриями крупных рек и oзёр, а также на вершинах хoлмoв на 2-5 м/с выше, чем в oбычных услoвиях.
Атмoсфернoе давление в разных тoчках местнoсти мoжет значительнo oтличаться oт давления на метеoстанции, в зависимoсти oт услoвий рельефа (при пoдъёме на 10 м давление пoнижается примернo на 1 мм рт.ст.).